TimeFrame on Redefined Productions
Outwar Torax TimeFrame

Torax TimeFrame

95 Gods Updated: 2019-03-22 17:50:04
NameTime LeftWindow Opens
Animated Captain5d 00:442019-03-17 23:47:00
Old World Drake4d 14:522019-03-18 09:39:00
Ormsul the Putrid2d 00:032019-03-21 00:28:00
Crolvak, the Fire Master1d 09:472019-03-21 14:44:00
Windstrike The Vile1d 04:412019-03-21 19:50:00
Ag Nabak the Abomination0d 23:472019-03-22 00:44:00
Kro Shuk, Doomslayer0d 21:242019-03-22 03:07:00
Viserion, the Necrodragon0d 20:232019-03-22 04:08:00
Straya, the Underworld Ruler0d 19:302019-03-22 05:01:00
Crantos, Defender of Ultimation0d 19:032019-03-22 05:28:00
Terrance, Rebel of Rallis0d 17:432019-03-22 06:48:00
Felroc, Overseer of Hellfire0d 17:342019-03-22 06:57:00
Wanhiroeaz the Devourer0d 17:312019-03-22 07:00:00
Keeper of Nature0d 13:072019-03-22 11:24:00
The Emerald Assassin0d 13:002019-03-22 11:31:00
Mistress of the Sword0d 08:352019-03-22 15:56:00
Archdevil Yirkon0d 06:382019-03-22 17:53:00
Lady Ariella0d 06:032019-03-22 18:28:00
Ancient Magus Tarkin0d 05:482019-03-22 18:43:00
Nessam0d 05:342019-03-22 18:57:00
Vitkros, Hydra of the Deep0d 04:402019-03-22 19:51:00
Zikkir the Dark Archer0d 04:042019-03-22 20:27:00
Synge, The Red Dragon0d 03:292019-03-22 21:02:00
Pinosis0d 03:252019-03-22 21:06:00
Nayark the Mummified Sorcerer0d 03:202019-03-22 21:11:00
Lord Varan0d 02:502019-03-22 21:41:00
Lord Sibannac0d 02:312019-03-22 22:00:00
Numerocure, The Black Messenger of Evil0d 02:302019-03-22 22:01:00
Freezebreed, The Frozen Manipulator0d 02:022019-03-23 02:34:00
Crane0d 02:292019-03-23 03:01:00
King Ashnar, Lord of the Unliving0d 03:552019-03-23 04:27:00
Garland, The Lord Keeper0d 05:542019-03-23 06:26:00
Shadow0d 06:192019-03-23 06:51:00
Tsort0d 06:212019-03-23 06:53:00
Rancid, Lord of Thugs0d 06:432019-03-23 07:15:00
Brutalitar, Lord of the Underworld0d 06:582019-03-23 07:30:00
Threk, King of Lords0d 06:582019-03-23 07:30:00
Nar Zhul, Slayer of All0d 07:232019-03-23 07:55:00
Gorganus of the Wood0d 07:442019-03-23 08:16:00
Volgan the Living Ironbark0d 08:202019-03-23 08:52:00
Tylos, The Lord Master0d 08:282019-03-23 09:00:00
Traxodon the Plaguebringer0d 09:142019-03-23 09:46:00
Esquin, the Kinetic Master0d 10:162019-03-23 10:48:00
Ebliss, Fallen Angel of Despair0d 13:162019-03-23 13:48:00
Hackerphage, Protector of the Gateway0d 13:352019-03-23 14:07:00
Samatha Dark-Soul0d 14:282019-03-23 15:00:00
Baron Mu, Dark Rider of the Undead0d 14:342019-03-23 15:06:00
Grivvek, Protector of the Brood0d 15:192019-03-23 15:51:00
Dreg nor, Keeper of the Infernal Essence0d 15:242019-03-23 15:56:00
Melt Bane, The Forbidden Demon Dragon0d 16:482019-03-23 17:20:00
Murderface0d 17:112019-03-23 17:43:00
Lord Narada0d 17:152019-03-23 17:47:00
Karvaz, Lord of Alsayic0d 17:482019-03-23 18:20:00
Akkel the Enflamed Warrior0d 17:582019-03-23 18:30:00
Smoot the Yeti0d 18:542019-03-23 19:26:00
Dlanod, the Crazed Chancellor0d 20:252019-03-23 20:57:00
Q-SEC Commander0d 21:582019-03-23 22:30:00
Howldroid, Tormentor of the Pit0d 22:142019-03-23 22:46:00
Sarcrina the Astral Priestess0d 23:012019-03-23 23:33:00
Gnorb0d 23:222019-03-23 23:54:00
Jorun the Blazing Swordsman1d 02:472019-03-24 03:19:00
Xynak, the Arcane Master1d 05:052019-03-24 05:37:00
Ganja the Stone Golem1d 08:502019-03-24 09:22:00
Lord Suka1d 08:592019-03-24 09:31:00
Bloodchill the Grizzly1d 10:412019-03-24 11:13:00
Rotborn, Eater of the Dead1d 11:432019-03-24 12:15:00
Anguish1d 13:122019-03-24 13:44:00
Detox1d 17:032019-03-24 17:35:00
Sylvanna TorLai1d 17:062019-03-24 17:38:00
Jazzmin, Maiden of Vitality1d 18:392019-03-24 19:11:00
Lady Chaos, Queen of the Abyss1d 19:152019-03-24 19:47:00
Slashbrood, Devourer of the Blackness2d 00:532019-03-25 01:25:00
Sigil, Lich of Woe2d 05:302019-03-25 06:02:00
Great Lord Ganeshan2d 11:192019-03-25 11:51:00
Zertan, The Collector2d 13:512019-03-25 14:23:00
Balerion, Dragon of Dread2d 14:342019-03-25 15:06:00
Kretok, Descendant of Nature2d 15:022019-03-25 15:34:00
Amalgamated Apparition2d 17:332019-03-25 18:05:00
Emperor Neudeus, Controller of the Universe2d 20:052019-03-25 20:37:00
Lord Xordam2d 20:582019-03-25 21:30:00
Raiyar, the Shadow Master2d 22:062019-03-25 22:38:00
Bolkor, the Holy Master3d 02:402019-03-26 03:12:00
Skarthul the Avenged3d 06:002019-03-26 06:32:00
Varsanor, Master of Darkness3d 09:422019-03-26 10:14:00
Anvilfist3d 12:022019-03-26 12:34:00
Skybrine The Inescapable3d 12:412019-03-26 13:13:00
Quiver, The Renegade3d 13:562019-03-26 14:28:00
Lacuste of the Swarm3d 21:402019-03-26 22:12:00
Nafir, God of Desolation4d 07:032019-03-27 07:35:00
Shaik, Servant of Arkron258d 18:482018-07-07 05:43:00
Rook, Hand of Arkron256d 21:232018-07-09 03:08:00
Noxious Slug7d 11:472019-03-15 12:44:00
Beast of Cards6d 23:102019-03-16 01:21:00
Jade Dragonite4d 05:582019-03-18 18:33:00
Hyrak, Bringer of Nightmares1d 03:592019-03-21 20:32:00